Back to catalog

DELTA 1 DEB

AliveSSO
NORAD 21473·DEBRIS·🇺🇸 United States

Launched Jun 12, 1975 from Vandenberg Space Force Base

Loading…

Next Passes (next 24 hours)

TLE

FreshSource: Space-Track

Epoch: Sep 14, 2026, 00:50 UTC

1 21473U 75052FH  26257.03531314  .00000429  00000-0  51233-3 0  9990
2 21473  99.9215  89.2698 0239742 103.3141  46.3286 13.61430496745356

Track DELTA 1 DEB in real time with AllMySat

Download on the App Store